Imrali, Turkey

7:21 PM +03 on July 25, 2017 (GMT +0300)
Ataturk | | Change Station

Elev 121 ft 40.97 °N, 28.82 °E | Updated 31 minutes ago

Partly Cloudy
Partly Cloudy
88 °F
Feels Like 86 °F
N
8
Wind Variable Wind from SE

Today
High -- | Low -- °F
--% Chance of Precip.
Yesterday
High -- | Low -- °F
Precip. -- in
Pressure 29.56 in
Visibility -9999.0 miles
Clouds
Heat Index 86 °F
Dew Point 54 °F
Humidity 31%
Rainfall 0.00 in
Snow Depth Not available.
5:56 AM 8:27 PM
Waxing Crescent, 7% visible
METAR LTBA 251550Z 13007KT CAVOK 31/12 Q1001 NOSIG RMK RWY17L 13006KT 090V160 RWY05 12004KT 090V150 RWY23 13007KT
Pressure 29.56 in
Visibility -9999.0 miles
Clouds
Heat Index 86 °F
Dew Point 54 °F
Humidity 31%
Rainfall 0.00 in
Snow Depth Not available.
5:56 AM 8:27 PM
Waxing Crescent, 7% visible
METAR LTBA 251550Z 13007KT CAVOK 31/12 Q1001 NOSIG RMK RWY17L 13006KT 090V160 RWY05 12004KT 090V150 RWY23 13007KT

Get Severe Weather Alerts

Thanks for signing up!

Be on the lookout for a verification email in your inbox.

You'll start receiving the daily forecast at 6 AM.

×

10-Day Weather Forecast

×

Almanac

Astronomy

Jul. 25, 2017 Rise Set
Actual Time
Civil Twilight
Nautical Twilight
Astronomical Twilight
Moon
Length of Visible Light
Length of Day
Tomorrow will be .
, % of the Moon is Illuminated

Today's Extremes

Country Highs Country Lows

Community

WunderPhotos

Category 6

Welcome to Category 6. This is the collective home for Weather Underground's featured writeups by Dr. Jeff Masters (right), Bob Henson (left), Chris Burt, and other regular contributors.

Nearby

Air Quality

  Air Quality AQ Index Pollutant
Not available.

Snow Depth

Station Depth Elevation

Earthquake Activity

City Distance Mag. Time & Date
Minimum magnitude displayed is 2.5.

Coastal Water Temperatures

Place Temperature

Stations

Nearby Weather Stations

Station Location Temp. Windchill Dew Point Humidity Wind Precip. Elev Updated Type